Location: La Caliorne
(47.9899°N, 1.7006°W)
Time: 12:48:34
(UTC+00:00)

Daily predictions for brighter satellites

Satellite Brightness Start Highest point End
(mag) Time Altitude Azimuth Time Altitude Azimuth Time Altitude Azimuth
Cosmos 1743 Rocket 4.5 20:30:17 10° N 20:34:20 34° ENE 20:38:24 10° SE
USA 32 4.2 20:30:20 10° S 20:35:33 81° W 20:40:49 10° N
Cosmos 2369 Rocket 3.8 20:31:48 10° NW 20:36:41 31° WSW 20:41:32 10° SSW
Cosmos 1603 3.7 20:33:23 10° SSW 20:39:03 79° ESE 20:44:49 10° NNE
SeaSat 1 3.7 20:34:56 10° S 20:39:29 38° WSW 20:44:05 10° NW
Okean 1 3.6 20:36:46 10° SSE 20:40:28 46° E 20:44:13 10° NNE
Cosmos 1408 Rocket 3.7 20:36:14 10° N 20:40:42 68° E 20:45:06 10° SSE
Centaur D AC-29 4.2 20:37:31 10° S 20:42:04 17° SE 20:52:13 10° ESE
ARGOS Delta rocket 4.1 20:39:38 10° SSE 20:44:22 55° ENE 20:48:54 10° N
Cosmos 1151 Rocket 4.0 20:43:52 10° SSE 20:47:35 29° E 20:51:19 10° NNE
Cosmos 1975 4.4 20:47:41 10° NNE 20:50:44 21° ENE 20:53:46 10° ESE
Cosmos 1302 Rocket 4.0 20:53:08 10° NNW 20:58:22 83° ENE 21:03:31 10° SSE
MOS 1 Rocket 4.1 20:54:09 10° SE 20:59:08 47° ENE 21:04:16 10° N
USA 281 4.1 20:54:35 10° ESE 21:00:37 40° NE 21:06:41 10° NNW
NOSS 3-3 (A) 4.3 20:57:20 10° S 21:02:12 35° ESE 21:07:42 10° NE
Meteor 1-19 Rocket 4.3 20:59:53 10° S 21:05:39 69° E 21:11:18 10° NNE
Cosmos 1536 3.2 21:01:51 10° NNW 21:05:44 61° W 21:09:36 10° S
NOSS 2-1 (C) 3.6 21:03:48 10° NW 21:07:39 84° SW 21:12:16 13° SE
Cosmos 1943 4.5 21:03:10 10° SW 21:08:35 45° NW 21:14:02 10° NNE
Cosmos 1340 2.3 21:06:12 10° N 21:09:36 75° ENE 21:12:29 13° SSE
Landsat 4 3.5 21:09:33 13° SSE 21:12:31 71° ENE 21:16:00 10° N
Molniya-1 4.5 21:09:25 10° S 21:12:54 47° ESE 21:21:37 10° NE
Okean-O 4.1 21:11:29 10° SSW 21:15:29 34° W 21:19:32 10° NNW
Meteor 2-10 4.2 21:10:27 10° NNW 21:15:55 79° W 21:21:10 10° S
USA 245 2.2 21:14:21 16° S 21:16:05 76° WSW 21:18:43 10° NNW
Nadezhda 4 Rocket 4.0 21:10:32 10° S 21:16:40 70° E 21:22:55 10° NNE
Spot 2 Rocket 3.5 21:12:30 12° SSE 21:17:11 78° ENE 21:22:15 10° NNW
Cosmos 1500 Rocket 3.8 21:12:57 10° NNW 21:17:14 69° W 21:21:30 10° S
Cosmos 1626 3.3 21:17:57 16° ESE 21:19:15 20° E 21:21:43 10° NE
Meteor 1-11 Rocket 4.3 21:15:19 10° NNW 21:20:56 58° W 21:26:38 10° S
SPOT 5 3.6 21:18:05 10° S 21:22:20 44° W 21:26:30 10° NNW
Cosmos 1726 4.1 21:21:19 10° NW 21:23:39 19° W 21:25:58 10° SW
Sich 1 3.3 21:20:28 10° NNW 21:24:50 69° W 21:28:59 11° S
Cosmos 1697 Rocket 3.8 21:21:21 10° NNW 21:26:29 34° NE 21:31:08 12° ESE
BREEZE-M DEB (TANK) 3.6 21:13:34 10° SW 21:26:30 53° SSE 21:30:05 10° ENE
Cosmos 1805 Rocket 3.9 21:24:31 10° NNW 21:28:54 63° W 21:33:05 11° S
Cosmos 1733 3.5 21:27:11 10° NNW 21:30:37 54° W 21:33:38 13° S
Cosmos 1633 Rocket 3.7 21:27:54 10° N 21:32:06 41° ENE 21:34:53 19° SE
NOSS 3-3 (C) 3.8 21:30:26 10° SSW 21:35:40 56° ESE 21:41:49 10° NE
Cosmos 1980 Rocket 3.9 21:31:49 10° N 21:36:23 24° NE 21:40:55 10° E
Cosmos 1666 Rocket 3.7 21:33:50 10° N 21:38:05 57° ENE 21:40:51 21° SSE
Lacrosse 5 rocket 3.2 21:35:02 10° NW 21:38:44 28° NNE 21:42:21 10° ENE
SL-8 R/B 3.6 21:34:05 10° W 21:38:52 90° S 21:43:38 10° E
Ariane Rocket 3.2 21:36:07 14° S 21:40:30 70° WSW 21:45:37 10° NNW
Cosmos 44 Rocket 3.9 21:37:24 10° NNW 21:42:15 50° NE 21:45:49 17° ESE
IRIDIUM 114 4.5 21:37:05 10° N 21:42:16 60° E 21:45:54 19° SSE
Cosmos 1674 4.3 21:44:53 16° ESE 21:45:36 17° E 21:47:56 10° NE
IRIDIUM 103 4.3 21:46:12 10° N 21:51:27 72° E 21:55:02 20° SSE
Meteor 2-4 Rocket 3.8 21:46:32 12° S 21:51:57 76° E 21:57:54 10° NNE
ERS-1 Rocket 4.0 21:48:12 10° SSW 21:52:55 40° W 21:57:40 10° NNW
Cosmos 1340 Rocket 4.1 21:49:31 10° SW 21:53:17 40° WNW 21:57:04 10° N
Cosmos 2026 Rocket 4.0 21:49:43 15° S 21:55:03 72° E 22:01:15 10° NNE
Lacrosse 4 Rocket 1.8 21:51:12 10° NW 21:55:11 51° WSW 21:57:32 23° S
SPOT 3 Rocket 4.0 21:51:13 15° S 21:55:23 58° W 22:00:29 10° NNW
Cosmos 614 Rocket 4.4 21:51:35 10° SSW 21:56:45 65° WNW 22:01:58 10° NNE
Spot 1 3.9 21:53:30 10° NNE 21:57:40 84° ESE 22:01:02 16° SSW
Cosmos 1818 3.6 21:53:51 10° SW 21:59:19 84° NW 22:04:50 10° NE
USA 59 Rocket 1.4 21:59:52 10° WNW 22:03:40 33° SW 22:06:48 19° S
Cosmos 1607 4.3 21:58:33 13° S 22:04:04 47° ESE 22:10:16 10° NE
H-2A R/B 4.1 22:01:54 16° ESE 22:04:10 24° ENE 22:07:36 10° N
Cosmos 1805 4.0 22:01:19 10° NNW 22:04:51 43° W 22:07:13 18° SSW
Terra 3.2 22:02:56 11° SSW 22:07:00 33° W 22:11:15 10° NNW
Cosmos 1766 3.3 22:04:18 10° N 22:08:03 61° E 22:09:34 32° SSE
Cosmos 1627 Rocket 4.5 22:03:59 15° S 22:09:23 89° ESE 22:15:41 10° N
IRIDIUM 106 4.4 22:04:30 10° N 22:09:45 81° W 22:13:18 21° S
Cosmos 1833 Rocket 2.7 22:07:45 18° S 22:11:54 59° ESE 22:17:25 10° NE
Cosmos 1656 4.1 22:09:53 10° NW 22:15:11 51° WSW 22:18:33 22° S
Cosmos 1269 Rocket 4.1 22:12:58 10° SSW 22:18:14 80° WNW 22:23:33 10° NNE
Cosmos 1470 3.3 22:18:59 10° N 22:22:31 41° ENE 22:23:37 32° ESE
Landsat 5 3.9 22:20:43 10° N 22:24:25 52° WNW 22:27:17 16° SW
Cosmos 2082 Rocket 3.4 22:23:56 21° SE 22:25:24 24° ESE 22:29:52 10° NE
Cosmos 2251 Rocket 4.3 22:24:49 27° SE 22:26:36 34° ESE 22:31:20 10° NE
Cosmos 1975 4.0 22:23:07 10° NNW 22:26:43 34° W 22:28:58 19° SW
DELTA 2 R/B (1) 4.1 22:24:40 10° WSW 22:29:41 35° S 22:31:29 28° SE
Cosmos 1553 Rocket 3.9 22:25:38 10° N 22:31:45 83° E 22:35:14 27° SSE
Cosmos 2360 4.4 22:28:21 10° NNW 22:34:00 62° WSW 22:37:00 28° S
Cosmos 1908 3.7 22:35:02 10° N 22:38:27 41° ENE 22:39:14 35° ESE
GEOS 3 Rocket 3.5 22:33:24 10° NE 22:38:35 69° SE 22:42:27 18° SSW
Cosmos 724 4.2 22:34:34 19° SSW 22:38:54 66° ESE 22:44:41 10° NE
ARIANE 5 R/B 2.5 22:40:25 37° SSE 22:42:06 85° ENE 22:46:26 10° NNW
USA 281 3.7 22:41:02 24° S 22:44:58 51° WSW 22:51:24 10° NNW
H-2A R/B 4.2 22:47:08 10° ENE 22:49:03 13° E 22:49:42 12° E
Cosmos 1023 Rocket 4.4 22:48:16 24° SSW 22:51:29 89° WNW 22:56:44 10° NNE
CZ-2C R/B 3.6 22:47:19 10° NNE 22:51:49 88° W 22:53:46 33° SSW
Cosmos 2285 Rocket 4.0 22:48:47 26° S 22:52:27 71° ESE 22:58:48 10° NNE
Cosmos 1626 3.9 22:50:44 14° WSW 22:52:41 22° WNW 22:55:18 10° NNW
Cosmos 1515 Rocket 3.7 22:54:05 31° SSW 22:56:01 68° W 23:00:20 10° N
Cosmos 1140 Rocket 3.5 22:54:16 25° SSW 22:57:26 84° WNW 23:02:40 10° NNE
Meteor 1-22 Rocket 4.5 22:53:24 10° N 22:58:40 54° ENE 23:01:09 30° SE
Spot 4 4.0 22:58:19 35° SE 23:00:13 65° ENE 23:04:57 10° N
BREEZE-M DEB (TANK) 4.0 22:55:49 10° SW 23:00:16 69° SSE 23:18:38 10° ENE
Cosmos 1707 2.4 23:00:27 54° S 23:01:13 88° WNW 23:04:53 10° N
Cosmos 1400 Rocket 3.9 23:02:59 28° ESE 23:03:25 29° E 23:06:52 10° NNE
Cosmos 2266 Rocket 4.0 23:02:10 32° S 23:05:14 72° E 23:11:31 10° NNE
PSLV R/B 3.9 23:01:24 10° NNE 23:05:28 80° WNW 23:06:48 41° SSW
Cosmos 1300 4.0 23:02:55 10° NNE 23:05:59 26° ENE 23:06:40 24° E
Cosmos 1869 Rocket 3.5 23:04:18 10° N 23:08:42 79° E 23:10:01 45° SSE
NOSS 3-4 (A) 3.9 23:02:29 10° NW 23:09:21 71° SW 23:13:38 29° SSE
NOSS 3-4 (C) 3.9 23:02:35 10° NW 23:09:27 72° SW 23:13:46 29° SSE
Cosmos 1697 Rocket 3.2 23:05:15 10° NW 23:10:35 46° WSW 23:12:51 30° SSW
Cosmos 2322 Rocket 4.3 23:06:45 10° N 23:11:03 21° NE 23:15:19 10° E
Cosmos 1441 Rocket 2.9 23:08:01 10° N 23:11:37 78° E 23:12:05 63° SE
OPS 6432 4.2 23:11:18 10° NW 23:14:25 69° NE 23:14:38 65° E
Meteor 1-15 Rocket 4.2 23:08:52 10° N 23:14:30 74° ENE 23:16:53 35° SSE
In-Cosmos 22 4.2 23:12:54 35° S 23:15:26 74° E 23:21:07 10° NNE
Lacrosse 5 rocket 1.3 23:13:25 10° NW 23:17:37 77° NE 23:19:04 39° ESE
Cosmos 1674 3.9 23:18:27 25° WSW 23:19:38 32° WNW 23:22:49 10° N
Cosmos 2228 Rocket 3.8 23:19:15 35° SE 23:20:16 41° E 23:24:31 10° NNE
Cosmos 1842 4.2 23:19:04 29° WSW 23:20:19 38° WNW 23:23:48 10° N
Cosmos 1980 Rocket 2.2 23:15:18 10° NNW 23:21:01 77° WSW 23:23:21 37° SSE
SL-8 R/B 4.0 23:16:36 10° W 23:21:05 43° SSW 23:21:28 42° SSW
Cosmos 44 Rocket 4.4 23:19:19 10° WNW 23:23:28 28° WSW 23:24:27 26° SW
Cosmos 2333 Rocket 4.4 23:22:16 10° N 23:26:34 21° NE 23:30:50 10° E
Cosmos 1356 Rocket 4.4 23:27:09 30° ESE 23:27:43 31° E 23:31:24 10° NNE
Cosmos 540 Rocket 3.5 23:23:14 10° NNW 23:28:26 75° ENE 23:30:29 37° SE
Cosmos 1655 Rocket 4.0 23:26:16 34° S 23:29:15 76° E 23:35:39 10° NNE
USA 234 4.4 23:23:24 10° E 23:29:33 45° NNE 23:35:42 10° WNW
Cosmos 1953 4.4 23:28:00 10° NNE 23:30:38 17° ENE 23:32:08 14° E
Cosmos 1763 Rocket 3.5 23:25:35 10° NNW 23:30:54 79° WSW 23:32:48 41° S
BREEZE-M DEB (TANK) 2.9 23:30:09 10° WNW 23:37:30 10° ESE 23:31:44 44° W
Cosmos 468 Rocket 4.0 23:28:22 10° NNW 23:33:41 77° ENE 23:35:47 37° SE
SL-14 R/B 3.4 23:36:11 51° ESE 23:36:35 54° E 23:40:19 10° NNE
GP-B 3.3 23:32:51 10° N 23:37:14 58° E 23:38:18 44° SE
H-2A R/B 3.3 23:37:54 34° SW 23:38:52 40° W 23:42:57 10° NNW
Cosmos 407 Rocket 4.0 23:36:25 24° SW 23:39:31 57° WNW 23:44:42 10° NNE
Cosmos 1455 4.2 23:39:53 10° NNE 23:42:12 17° ENE 23:43:13 15° E
CZ-3 Stage 3 4.2 23:25:06 10° WSW 23:42:20 29° SSW 23:43:39 28° S
Cosmos 1862 Rocket 3.9 23:42:08 42° SE 23:42:59 49° E 23:47:13 10° NNE
Aureole 3 3.9 23:44:34 33° E 23:44:34 33° E 23:47:15 10° NNE
Cosmos 676 Rocket 4.1 23:44:45 41° SSE 23:46:25 61° ESE 23:51:41 10° NNE
Cosmos 1954 Rocket 4.0 23:45:26 41° S 23:47:18 74° ESE 23:52:37 10° NNE
Cosmos 2369 3.8 23:43:05 10° NNW 23:48:44 62° WSW 23:50:46 39° S
ALOS 2 2.8 23:49:40 45° SSW 23:50:40 58° W 23:55:01 10° NNW
Cosmos 1190 Rocket 4.1 23:51:06 34° SSW 23:53:25 76° WNW 23:58:45 10° NNE
